Other Surface Observations
Issued by NWS

Home | Current Version | Previous Version | Text Only | Print | Product List | Glossary On
Versions: 1 2 3 4 5 6 7 8 9 10 11 12 13 14 15 16 17 18 19 20 21 22 23 24 25 26 27 28 29 30 31 32 33 34 35 36 37 38 39 40 41 42 43 44 45 46 47 48 49 50
692
SXUS52 KTAE 230118
OSOTAE
OSOTAE
North Florida/South Alabama/Southwest Georgia Weather Roundup
National Weather Service Tallahassee Florida
800 PM EST WED FEB 22 2017

Note: "fair" indicates few or no clouds below 12,000 feet with no
significant weather and/or obstructions to visibility.

!FLZ017-115-028-034-025-230200
...North Florida...

CITY           SKY/WX    TMP DP  RH WIND       PRES   REMARKS
TALLAHASSEE    CLOUDY    67  62  84 NE6       29.74R
APALACHICOLA   MOCLDY    67  63  87 NE8       29.71S
PERRY          CLEAR     65  63  90 E5        29.73S
CROSS CITY     PTCLDY    64  63  94 E8        29.71F
JACKSONVILLE   LGT RAIN  64  62  93 E9        29.77S
$$

!FLZ112-006-005-002-011-230200
...Florida Panhandle...

CITY           SKY/WX    TMP DP  RH WIND       PRES   REMARKS
MARIANNA       CLEAR     64  62  93 NE5       29.76R
BONIFAY        NOT AVBL
PANAMA CITY NW MOCLDY    68  60  75 N6        29.75R
TYNDALL AFB    CLEAR     67  60  77 NE6       29.75R
TYND DRONE APT FAIR      67  62  84 N10G18    29.75R
DE FUNIAK SPR  FAIR      65  58  78 NE5       29.79R
EGLIN AFB      PTCLDY    66  60  79 N7        29.76R
DESTIN         CLEAR     71  66  84 NE5       29.76R
HURLBURT       CLEAR     64  57  78 NE7       29.76R
CRESTVIEW      CLEAR     62  58  86 CALM      29.79R
PENSACOLA      PTCLDY    69  59  70 N5        29.77R
$$

!ALZ063-066-230200
...South Alabama...

CITY           SKY/WX    TMP DP  RH WIND       PRES   REMARKS
DOTHAN         CLEAR     63  62  97 N5        29.82R
OZARK CAIRNS   PTCLDY    63  61  94 N5        29.80R
FT RUCKER HELI PTCLDY    62  60  94 CALM      29.79R
RUCKER HELI 3  NOT AVBL
RUCKER HELI 2  FAIR      63  61  94 N3        29.79R
FLORALA APT    CLEAR     64  59  83 NE7       29.81R
ANDALUSIA      CLOUDY    69  60  73 NE5       29.79R
TROY           CLOUDY    66  62  87 N7        29.82R
EUFALA         FAIR      66  60  81 VRB3      29.81R
MOBILE         PTCLDY    63  56  78 NW6       29.80R
$$

!GAZ120>161-230200
...Southwest and South Central Georgia...

CITY           SKY/WX    TMP DP  RH WIND       PRES   REMARKS
THOMASVILLE    MOCLDY    64  64 100 NE7       29.78S
BAINBRIDGE     CLEAR     66  63  88 E8        29.77S
MOODY AFB      CLOUDY    63  61  94 NE8       29.77S
VALDOSTA       CLOUDY    63  61  93 NE8       29.77R
MOULTRIE       CLOUDY    64  61  88 E5        29.79R
BLAKELY        CLEAR     66  61  82 CALM      29.79R
ALBANY         PTCLDY    66  61  84 NE9       29.81S
TIFTON         CLOUDY    64  63  97 NE5       29.80R
FITZGERALD     CLOUDY    65  64  96 NE7       29.84S
CORDELE        CLOUDY    68  62  80 E7        29.83S
AMERICUS       FAIR      63  57  82 E6        29.85R
HOMERVILLE     MOCLDY    63  63 100 E3        29.80R
$$

!GMZ750-755-770-775-230200
...Coastal and Buoy Obs...

STATION/POSITION TIME  TEMP    WIND        PRES    VSBY  WAVE
                       AIR SEA DIR/SP/G                  HT/PER
                 (UTC) (F)     (DEG/KT/KT) (MB)    (MI)  (FT/S)
KEATON BEACH     0100   64      60/  9/ 10 1005.8R
CEDAR KEY        0100   65      60/ 17/ 19 1005.7R
C TOWER          0100   65      40/ 12/ 13 1006.5R
APALACHICOLA BUO 2350   68 70   10/ 12/ 14 1004.7          3/ 6
PANAMA CITY BUOY 2350   67 71              1005.4          4/ 6
MOBILE BUOY      NOT AVBL
ORANGE BCH AL BU 2350   68 68  340/ 14/ 16 1007.4          3/ 4
$$




USA.gov is the U.S. government's official web portal to all federal, state and local government web resources and services.